Flag for Germany Weather past 2 weeks in Lahr, Baden-Württemberg, Germany

Now
58 °F

Fog.


Feels Like: 58 °F
Forecast: 53 / 75 °F
Wind: 1 mph from Southeast

Location: Lahr

Current Time: Sep 15, 2014 at 12:06:51 PM

Latest Report: Sep 15, 2014 at 11:00 AM


Visibility: 3 mi

Pressure: 30.02 "Hg

Humidity: 92%

Dew point: 56 °F

Location of LahrLocation

Historic Weather in Lahr — Graph

°F

Lahr temperature yesterday

Maximum temperature yesterday: 70 °F (at 6:00 PM)
Minimum temperature yesterday: 58 °F (at 11:00 PM)
Average temperature yesterday: 63 °F

Past Weeks' High & Low Weather Summary

 TemperatureHumidityPressure
High78 °F (Sep 8, 5:00 PM)100% (Sep 1, 12:00 AM)30.17 "Hg (Sep 1, 12:00 AM)
Low48 °F (Sep 11, 7:00 AM)54% (Sep 7, 4:00 PM)29.86 "Hg (Sep 6, 5:00 PM)
Average62 °F86%30.04 "Hg
* Reported Aug 31 11:00 AM — Sep 15 11:00 AM, Lahr, Weather by CustomWeather, © 2014

Note: Actual official high and low records may vary slightly from our data, if they occured in-between our weather recording intervals... More about our weather records

Advertising

Lahr weather history for previous 24 hours

 ConditionsComfort  
Time TempWeatherWind HumidityBarometerVisibility
11:00 AM
Sep 15
58 °FFog.1 mph92%30.02 "Hg3 mi
10:00 AM56 °FFog.1 mph96%30.02 "Hg1 mi
9:00 AM56 °FFog.1 mph99%30.01 "Hg0 mi
8:00 AM55 °FFog.2 mph100%30.01 "Hg0 mi
7:00 AM54 °FFog.1 mph99%30.01 "Hg0 mi
6:00 AM55 °FFog.1 mph99%30.00 "Hg0 mi
5:00 AM54 °FLow clouds.1 mph100%30.01 "Hg0 mi
4:00 AM54 °FLow clouds.1 mph100%30.00 "Hg0 mi
3:00 AM53 °FPassing clouds.1 mph99%30.00 "Hg0 mi
2:00 AM53 °FFog.1 mph97%30.01 "Hg2 mi
1:00 AM56 °FFog.1 mph99%30.01 "Hg4 mi
12:00 AM56 °FClear.1 mph98%30.01 "Hg5 mi
11:00 PM
Sep 14
58 °FPassing clouds.1 mph97%30.02 "Hg7 mi
10:00 PM58 °FPassing clouds.1 mph94%30.01 "Hg9 mi
9:00 PM60 °FClear.2 mph90%30.01 "Hg19 mi
8:00 PM64 °FClear.2 mph84%30.00 "Hg22 mi
7:00 PM67 °FPassing clouds.99 mph74%30.00 "Hg1 mi
6:00 PM70 °FPassing clouds.5 mph71%30.00 "Hg22 mi
5:00 PM69 °FScattered clouds.5 mph71%30.01 "Hg22 mi
4:00 PM68 °FPartly sunny.6 mph76%30.02 "Hg22 mi
3:00 PM69 °FPartly sunny.5 mph66%30.03 "Hg22 mi
2:00 PM69 °FPartly sunny.3 mph64%30.04 "Hg19 mi
1:00 PM67 °FScattered clouds.3 mph70%30.06 "Hg16 mi
12:00 PM66 °FPartly sunny.3 mph78%30.08 "Hg16 mi
Weather by CustomWeather, © 2014

See weather overviewHow to use our weather pages